SJX761 RCTP-WIII

Flight info

Callsign SJX761
Flight time N/A
Altitude 38000
Route TINHO1A TINHO Q11 TITUS B591 JICHI Q11 POTIB M646 LAO/N0487F400 M646 SANRO B591 LUBAN/N0490F390 W3 OLRAX/N0487F400 M646 VJN P648 AMBOY
Aircraft A359/H-SDE2E3GHIJ3J4J5LM1ORWXY/LB1D1

Departure

Time N/A
Airport Taiwan Taoyuan International Airport (RCTP)

Arrival

Time 2026-05-05 14:09
Airport Soekarno-Hatta International Airport (WIII)
Time Latitude Longitude Altitude Speed Heading
2026-05-05 14:01 -6.11507 106.27675 3050 ft 192 kts 92°
2026-05-05 14:01 -6.11197 106.28939 2696 ft 192 kts 60°
2026-05-05 14:02 -6.10403 106.30019 2330 ft 193 kts 62°
2026-05-05 14:02 -6.10205 106.31328 2058 ft 192 kts 99°
2026-05-05 14:02 -6.10665 106.32594 2008 ft 194 kts 116°
2026-05-05 14:02 -6.14491 106.36053 1999 ft 197 kts 157°
2026-05-05 14:03 -6.17078 106.36736 2002 ft 197 kts 164°
2026-05-05 14:03 -6.18327 106.37277 1999 ft 195 kts 144°
2026-05-05 14:03 -6.19261 106.38245 2004 ft 193 kts 124°
2026-05-05 14:03 -6.19870 106.39436 1999 ft 192 kts 106°
2026-05-05 14:04 -6.20594 106.41665 1989 ft 195 kts 92°
2026-05-05 14:04 -6.20366 106.42998 2003 ft 194 kts 71°
2026-05-05 14:04 -6.19878 106.44259 1999 ft 193 kts 69°
2026-05-05 14:04 -6.19374 106.45510 1999 ft 192 kts 69°
2026-05-05 14:05 -6.18878 106.46755 1999 ft 192 kts 69°
2026-05-05 14:05 -6.18382 106.48007 1996 ft 192 kts 70°
2026-05-05 14:05 -6.17888 106.49257 1999 ft 193 kts 70°
2026-05-05 14:05 -6.17395 106.50505 1996 ft 192 kts 70°
2026-05-05 14:06 -6.16901 106.51756 1994 ft 192 kts 70°
2026-05-05 14:06 -6.16411 106.52992 1996 ft 193 kts 70°
2026-05-05 14:06 -6.15914 106.54246 1980 ft 194 kts 69°
2026-05-05 14:06 -6.15417 106.55500 1761 ft 193 kts 69°
2026-05-05 14:07 -6.14925 106.56740 1503 ft 193 kts 69°
2026-05-05 14:07 -6.14442 106.57957 1255 ft 186 kts 69°
2026-05-05 14:07 -6.13979 106.59127 1017 ft 171 kts 69°
2026-05-05 14:07 -6.13556 106.60191 808 ft 158 kts 70°
2026-05-05 14:08 -6.13163 106.61184 630 ft 148 kts 70°
2026-05-05 14:08 -6.12792 106.62127 387 ft 142 kts 71°
2026-05-05 14:08 -6.12433 106.63029 239 ft 138 kts 69°
2026-05-05 14:08 -6.12073 106.63917 92 ft 137 kts 71°
2026-05-05 14:09 -6.11738 106.64767 45 ft 119 kts 70°
2026-05-05 14:09 -6.11480 106.65430 42 ft 84 kts 67°
2026-05-05 14:09 -6.11305 106.65858 43 ft 49 kts 68°
2026-05-05 14:09 -6.11249 106.66065 43 ft 15 kts 84°
2026-05-05 14:10 -6.11255 106.66178 43 ft 17 kts 97°
2026-05-05 14:10 -6.11305 106.66270 44 ft 15 kts 156°
2026-05-05 14:10 -6.11410 106.66313 44 ft 18 kts 158°
2026-05-05 14:10 -6.11531 106.66361 44 ft 20 kts 158°
2026-05-05 14:11 -6.11638 106.66404 44 ft 11 kts 155°
2026-05-05 14:11 -6.11687 106.66426 44 ft 8 kts 157°
2026-05-05 14:11 -6.11737 106.66447 44 ft 7 kts 157°
2026-05-05 14:11 -6.11751 106.66453 44 ft 0 kts 157°